This is the latest recevied weather packets stored in our database for station/object N0KTA-2. If no packets are shown the sender has not sent any weather packets the latest 10 day(s).
| Time | Temp. | Humidity | Pressure | Rain* | Wind** | Luminosity | Snow |
|---|---|---|---|---|---|---|---|
| 1777479565 | 13.89° C | 62% | 1018.2 hPa | 0 mm | - | - | - |
| 1777478965 | 13.33° C | 63% | 1018.5 hPa | 0 mm | - | - | - |
| 1777478365 | 12.78° C | 65% | 1018.4 hPa | 0 mm | - | - | - |
| 1777477764 | 12.22° C | 66% | 1018.5 hPa | 0 mm | - | - | - |
| 1777477164 | 12.22° C | 67% | 1018.5 hPa | 0 mm | - | - | - |
| 1777476564 | 11.67° C | 68% | 1018.5 hPa | 0 mm | - | - | - |
| 1777475965 | 11.67° C | 67% | 1018.6 hPa | 0 mm | - | - | - |
| 1777475364 | 11.67° C | 67% | 1018.5 hPa | 0 mm | - | - | - |
| 1777474765 | 11.11° C | 70% | 1018.5 hPa | 0 mm | - | - | - |
| 1777474166 | 11.11° C | 70% | 1018.5 hPa | 0 mm | - | - | - |
| 1777473564 | 10.56° C | 74% | 1019 hPa | 0 mm | - | - | - |
| 1777472965 | 10° C | 73% | 1018.9 hPa | 0 mm | - | - | - |
| 1777472364 | 10° C | 74% | 1019 hPa | 0 mm | - | - | - |
| 1777471765 | 10° C | 74% | 1019 hPa | 0 mm | - | - | - |
| 1777471165 | 9.44° C | 76% | 1019.1 hPa | 0 mm | - | - | - |
| 1777470564 | 8.89° C | 78% | 1019.1 hPa | 0 mm | - | - | - |
| 1777469965 | 8.89° C | 79% | 1019 hPa | 0 mm | - | - | - |
| 1777469364 | 8.33° C | 78% | 1019 hPa | 0 mm | - | - | - |
| 1777468764 | 8.33° C | 80% | 1019 hPa | 0 mm | - | - | - |
| 1777468166 | 7.78° C | 81% | 1019 hPa | 0 mm | - | - | - |
| 1777467565 | 7.78° C | 82% | 1018.5 hPa | 0 mm | - | - | - |
| 1777466965 | 7.22° C | 83% | 1018.5 hPa | 0 mm | - | - | - |
| 1777466365 | 7.22° C | 83% | 1018.5 hPa | 0 mm | - | - | - |
| 1777465765 | 7.22° C | 83% | 1018.3 hPa | 0 mm | - | - | - |
| 1777465164 | 6.67° C | 84% | 1018.1 hPa | 0 mm | - | - | - |
* Rain latest hour (hover to see other rain measurements)
** Current wind speed in m/s (hover to see current wind gust speed)